�N����,����,�~����,�C��,���x,�C��,����,���ϕ���,�ő�u�ԕ���,�ő厞����,���˗�,�I�_���x,�n�����x,�ő啗���N��,DTYPE
"21/12/26","00:10",0.0,2.0,92.4,1010.9,305.3,2.6,4.2,324.1,0.00,0.9,8.7,"00:07:14",1
"21/12/26","00:20",0.0,2.0,92.3,1010.7,309.1,3.1,4.1,300.7,0.00,0.9,8.4,"00:14:32",1
"21/12/26","00:30",0.0,1.9,92.2,1010.9,295.5,3.1,4.8,302.7,0.00,0.8,8.5,"00:24:20",1
"21/12/26","00:40",0.0,1.8,92.0,1011.2,305.8,3.1,4.9,304.7,0.00,0.7,8.5,"00:38:48",1
"21/12/26","00:50",0.0,1.8,91.8,1010.7,303.0,3.2,5.4,311.8,0.00,0.7,8.4,"00:42:36",1
"21/12/26","01:00",0.0,1.8,91.5,1010.7,296.7,3.1,4.4,266.9,0.00,0.6,8.3,"00:50:46",1
"21/12/26","01:10",0.0,1.8,91.2,1010.4,291.0,3.4,4.8,294.4,0.00,0.6,8.4,"01:01:48",1
"21/12/26","01:20",0.0,1.8,90.8,1010.7,292.8,3.2,4.4,305.2,0.00,0.5,8.5,"01:14:54",1
"21/12/26","01:30",0.0,1.8,90.6,1010.7,299.3,3.2,4.7,307.1,0.00,0.5,8.4,"01:28:14",1
"21/12/26","01:40",0.0,1.8,90.2,1010.7,287.2,3.2,4.9,319.6,0.00,0.4,8.7,"01:30:16",1
"21/12/26","01:50",0.0,1.8,89.8,1010.7,282.3,3.5,5.1,287.1,0.00,0.3,8.3,"01:48:44",1
"21/12/26","02:00",0.0,1.7,89.4,1010.9,285.4,3.1,5.2,295.6,0.00,0.2,8.3,"01:54:52",1
"21/12/26","02:10",0.0,1.6,89.2,1010.7,284.5,3.5,4.7,253.3,0.00,0.1,8.3,"02:09:02",1
"21/12/26","02:20",0.0,1.6,88.9,1010.9,286.2,3.4,6.0,261.3,0.00,0.0,8.4,"02:13:14",1
"21/12/26","02:30",0.0,1.6,88.7,1010.9,304.5,3.4,4.9,282.8,0.00,0.0,8.2,"02:26:50",1
"21/12/26","02:40",0.0,1.5,88.6,1011.2,287.9,3.2,4.9,284.5,0.00,-0.1,8.2,"02:39:02",1
"21/12/26","02:50",0.0,1.6,88.5,1011.4,295.0,3.6,4.9,281.7,0.00,-0.1,8.2,"02:44:34",1
"21/12/26","03:00",0.0,1.5,88.4,1011.2,288.3,3.7,5.5,302.3,0.00,-0.2,8.3,"02:50:30",1
"21/12/26","03:10",0.0,1.6,88.4,1011.4,289.8,4.1,5.4,291.7,0.00,-0.1,8.1,"03:02:16",1
"21/12/26","03:20",0.0,1.6,88.3,1011.2,290.0,3.9,5.9,298.9,0.00,-0.1,8.0,"03:12:00",1
"21/12/26","03:30",0.0,1.6,88.5,1010.4,292.6,3.6,5.7,275.2,0.00,-0.1,8.1,"03:26:58",1
"21/12/26","03:40",0.0,1.3,88.9,1010.7,296.5,3.6,4.9,305.0,0.00,-0.3,7.9,"03:32:46",1
"21/12/26","03:50",0.0,1.2,89.4,1010.7,287.7,3.4,5.0,279.8,0.00,-0.3,8.3,"03:44:56",1
"21/12/26","04:00",0.0,1.3,89.7,1010.9,294.8,3.9,5.7,311.3,0.00,-0.2,8.1,"03:58:32",1
"21/12/26","04:10",0.0,1.5,89.9,1010.7,292.6,3.4,5.0,293.7,0.00,0.1,7.9,"04:04:50",1
"21/12/26","04:20",0.0,1.3,90.5,1010.9,292.9,4.0,6.6,333.6,0.00,0.0,8.0,"04:18:16",1
"21/12/26","04:30",0.0,1.3,91.1,1010.9,293.7,4.5,7.0,316.3,0.00,0.1,7.8,"04:26:34",1
"21/12/26","04:40",0.0,1.3,91.5,1011.2,301.4,4.4,6.4,311.1,0.00,0.1,7.9,"04:32:28",1
"21/12/26","04:50",0.0,1.5,91.8,1010.9,301.0,4.6,7.5,322.3,0.00,0.4,7.8,"04:44:28",1
"21/12/26","05:00",0.0,1.5,91.9,1010.9,288.9,3.6,4.9,299.0,0.00,0.4,7.8,"04:52:44",1
"21/12/26","05:10",0.0,1.5,92.1,1010.9,284.2,4.2,5.8,272.5,0.00,0.4,7.9,"05:00:58",1
"21/12/26","05:20",0.0,1.4,92.3,1010.9,293.8,3.7,6.0,310.4,0.00,0.3,7.8,"05:13:46",1
"21/12/26","05:30",0.0,1.4,92.4,1010.9,282.6,3.9,5.1,265.5,0.00,0.3,7.7,"05:23:32",1
"21/12/26","05:40",0.0,1.5,92.3,1010.9,288.1,4.1,5.1,277.8,0.00,0.4,7.7,"05:36:26",1
"21/12/26","05:50",0.0,1.5,92.4,1011.4,296.4,3.7,5.7,309.3,0.00,0.4,7.9,"05:40:40",1
"21/12/26","06:00",0.0,1.5,92.4,1011.2,280.7,4.2,6.0,272.1,0.00,0.4,7.5,"05:56:34",1
"21/12/26","06:10",0.0,1.6,92.3,1011.9,282.7,3.7,6.3,278.2,0.00,0.5,7.6,"06:02:32",1
"21/12/26","06:20",0.0,1.4,92.5,1011.9,291.3,3.6,5.8,298.0,0.00,0.4,7.5,"06:13:20",1
"21/12/26","06:30",0.0,1.3,92.7,1011.6,286.7,3.0,4.2,300.1,0.00,0.3,7.7,"06:20:48",1
"21/12/26","06:40",0.0,1.3,92.9,1011.9,281.4,3.2,5.2,241.6,0.00,0.3,7.6,"06:35:28",1
"21/12/26","06:50",0.0,1.1,93.2,1011.9,289.5,3.1,5.5,291.1,0.00,0.2,7.6,"06:43:44",1
"21/12/26","07:00",0.0,1.1,93.5,1011.9,283.8,3.2,5.1,292.5,0.00,0.2,7.4,"06:56:16",1
"21/12/26","07:10",0.0,1.0,93.8,1011.6,306.2,3.5,6.0,270.1,0.00,0.2,7.7,"07:05:20",1
"21/12/26","07:20",0.0,1.0,94.2,1011.4,294.7,3.4,5.4,302.1,0.00,0.2,7.5,"07:12:16",1
"21/12/26","07:30",0.0,1.0,94.5,1011.9,295.0,2.8,4.1,252.2,0.00,0.3,7.5,"07:23:04",1
"21/12/26","07:40",0.0,1.1,94.8,1011.9,296.7,3.2,5.4,335.0,0.00,0.4,7.6,"07:36:18",1
"21/12/26","07:50",0.0,1.2,95.0,1012.1,295.7,3.6,6.7,319.1,0.00,0.5,7.5,"07:49:12",1
"21/12/26","08:00",0.0,1.3,95.1,1011.6,298.0,4.2,7.5,341.8,0.01,0.6,7.3,"07:54:08",1
"21/12/26","08:10",0.0,1.3,95.0,1011.6,312.4,4.6,6.7,341.8,0.02,0.6,7.3,"08:05:12",1
"21/12/26","08:20",0.0,1.6,94.9,1012.1,310.4,4.0,6.4,316.3,0.03,0.9,7.3,"08:11:54",1
"21/12/26","08:30",0.0,2.0,94.6,1012.3,307.1,4.4,8.8,327.2,0.07,1.3,7.2,"08:21:10",1
"21/12/26","08:40",0.2,2.2,94.2,1012.3,293.0,3.4,5.0,300.5,0.07,1.4,7.4,"08:37:14",1
"21/12/26","08:50",0.4,2.4,93.6,1012.6,283.4,3.6,4.9,305.4,0.11,1.5,7.3,"08:40:34",1
"21/12/26","09:00",0.0,2.0,93.5,1012.8,295.9,3.7,7.7,327.1,0.09,1.1,7.2,"08:54:08",1
"21/12/26","09:10",0.2,1.9,93.3,1012.8,315.0,4.2,9.0,322.3,0.11,1.0,7.2,"09:06:42",1
"21/12/26","09:20",0.0,2.1,92.5,1012.8,314.6,5.5,9.0,329.7,0.15,1.1,7.3,"09:19:30",1
"21/12/26","09:30",0.0,2.1,92.3,1013.0,305.9,5.1,10.4,336.0,0.16,1.0,7.3,"09:29:56",1
"21/12/26","09:40",0.0,2.2,92.2,1013.0,293.4,4.4,7.3,259.8,0.21,1.1,7.3,"09:37:58",1
"21/12/26","09:50",0.0,1.9,92.2,1013.3,292.4,4.2,7.3,298.1,0.19,0.8,7.2,"09:44:40",1
"21/12/26","10:00",0.2,2.0,92.7,1012.8,296.8,4.1,6.5,304.1,0.20,1.0,7.3,"09:53:24",1
"21/12/26","10:10",0.0,2.3,92.8,1013.5,289.1,4.1,8.3,338.9,0.24,1.3,7.5,"10:08:38",1
"21/12/26","10:20",0.0,2.0,92.9,1013.3,300.7,4.0,6.8,338.1,0.16,1.0,6.9,"10:10:44",1
"21/12/26","10:30",0.0,2.3,93.3,1013.3,290.2,5.0,9.4,336.0,0.28,1.4,7.3,"10:25:14",1
"21/12/26","10:40",0.0,2.5,93.2,1013.3,300.6,5.5,11.0,337.8,0.29,1.6,7.1,"10:36:18",1
"21/12/26","10:50",0.0,2.7,92.6,1013.3,295.1,4.6,9.4,319.8,0.31,1.7,7.1,"10:48:26",1
"21/12/26","11:00",0.0,3.0,92.2,1013.8,301.1,5.1,8.3,308.8,0.34,1.9,7.3,"10:51:44",1
"21/12/26","11:10",0.0,3.1,91.3,1013.3,314.1,5.1,7.1,320.8,0.36,1.9,7.3,"11:08:36",1
"21/12/26","11:20",0.0,3.6,89.8,1013.3,314.9,5.4,8.7,314.9,0.39,2.1,7.2,"11:16:44",1
"21/12/26","11:30",0.0,3.8,88.0,1013.8,298.3,5.2,9.8,302.2,0.39,2.0,7.2,"11:29:56",1
"21/12/26","11:40",0.0,3.4,86.3,1013.3,306.3,5.7,9.5,335.9,0.35,1.4,7.3,"11:39:00",1
"21/12/26","11:50",0.0,3.9,85.7,1013.3,305.5,4.7,10.6,336.0,0.39,1.8,7.3,"11:40:08",1
"21/12/26","12:00",0.0,3.7,84.6,1013.3,305.2,5.1,8.5,334.4,0.37,1.4,7.3,"11:58:24",1
"21/12/26","12:10",0.0,3.6,83.8,1013.0,309.9,5.5,11.9,316.2,0.33,1.2,7.3,"12:05:18",1
"21/12/26","12:20",0.0,2.4,84.4,1012.8,293.3,4.4,8.3,343.1,0.15,0.1,7.5,"12:19:56",1
"21/12/26","12:30",0.0,2.2,86.9,1012.6,307.5,5.0,8.0,341.1,0.17,0.3,7.7,"12:20:10",1
"21/12/26","12:40",0.0,2.4,88.1,1012.1,312.1,5.5,10.6,353.5,0.26,0.7,7.6,"12:38:24",1
"21/12/26","12:50",0.0,2.6,88.4,1011.9,299.2,4.5,7.0,328.3,0.25,0.9,7.5,"12:45:54",1
"21/12/26","13:00",0.0,2.3,89.3,1012.1,289.3,4.5,7.2,266.6,0.16,0.8,7.4,"12:52:26",1
"21/12/26","13:10",0.0,2.0,89.4,1012.1,304.3,5.2,10.0,334.1,0.19,0.5,7.7,"13:07:44",1
"21/12/26","13:20",0.0,2.2,90.0,1011.9,292.6,4.6,8.1,346.5,0.19,0.8,7.5,"13:15:56",1
"21/12/26","13:30",0.0,2.1,90.2,1011.6,295.9,5.1,7.7,316.0,0.18,0.7,7.7,"13:28:18",1
"21/12/26","13:40",0.0,2.2,89.8,1011.4,301.1,5.2,9.5,325.5,0.20,0.7,7.7,"13:39:28",1
"21/12/26","13:50",0.0,2.8,89.4,1011.6,308.8,5.9,11.3,320.2,0.30,1.3,7.4,"13:43:04",1
"21/12/26","14:00",0.0,3.0,87.8,1011.6,297.8,6.1,11.8,322.0,0.33,1.2,7.5,"13:58:22",1
"21/12/26","14:10",0.0,3.2,85.4,1012.1,309.6,5.9,9.3,339.2,0.26,1.0,7.7,"14:06:38",1
"21/12/26","14:20",0.0,3.1,82.9,1011.9,307.6,4.6,7.4,310.6,0.18,0.5,7.6,"14:12:20",1
"21/12/26","14:30",0.0,3.0,81.1,1011.9,310.1,5.1,8.0,330.5,0.10,0.1,7.6,"14:22:26",1
"21/12/26","14:40",0.0,3.5,80.7,1011.6,306.6,4.4,6.0,319.7,0.22,0.5,7.7,"14:33:10",1
"21/12/26","14:50",0.0,3.5,78.5,1012.1,299.4,4.6,6.5,336.0,0.23,0.2,7.7,"14:44:52",1
"21/12/26","15:00",0.0,2.9,79.9,1012.1,309.8,5.7,9.3,313.5,0.13,-0.2,7.8,"14:53:16",1
"21/12/26","15:10",0.0,2.9,82.5,1011.6,307.0,3.5,5.7,330.4,0.14,0.3,7.7,"15:06:34",1
"21/12/26","15:20",0.0,2.4,83.5,1011.9,329.6,5.4,8.5,332.4,0.12,-0.1,7.7,"15:14:08",1
"21/12/26","15:30",0.0,3.0,84.5,1011.9,315.4,4.2,7.4,334.7,0.23,0.7,7.7,"15:26:20",1
"21/12/26","15:40",0.0,3.1,84.0,1011.9,308.7,4.2,7.3,330.8,0.15,0.7,7.6,"15:39:20",1
"21/12/26","15:50",0.0,2.6,83.9,1011.9,317.9,5.0,9.0,331.5,0.06,0.2,7.8,"15:41:52",1
"21/12/26","16:00",0.0,2.2,84.4,1011.9,315.6,4.5,7.2,342.3,0.03,-0.1,7.4,"15:53:28",1
"21/12/26","16:10",0.0,1.7,85.5,1011.9,304.1,4.4,8.3,332.0,0.00,-0.4,7.7,"16:04:20",1
"21/12/26","16:20",0.0,1.4,86.6,1011.6,299.5,4.7,6.2,332.5,0.01,-0.5,7.5,"16:18:18",1
"21/12/26","16:30",0.0,1.6,87.1,1011.9,307.8,4.9,9.3,337.4,0.00,-0.3,7.7,"16:24:12",1
"21/12/26","16:40",0.0,1.6,87.6,1011.6,309.9,5.0,7.7,329.9,0.00,-0.2,7.7,"16:33:28",1
"21/12/26","16:50",0.0,1.4,87.9,1012.1,297.3,4.5,6.7,333.1,0.00,-0.3,7.7,"16:49:48",1
"21/12/26","17:00",0.0,1.4,88.0,1012.3,289.7,4.6,8.0,339.8,0.00,-0.3,7.7,"16:57:00",1
"21/12/26","17:10",0.0,1.2,88.2,1012.3,301.1,4.9,7.3,308.3,0.00,-0.5,7.6,"17:08:36",1
"21/12/26","17:20",0.0,1.1,88.8,1012.3,302.6,4.6,7.1,320.8,0.00,-0.5,7.6,"17:19:42",1
"21/12/26","17:30",0.0,0.8,89.6,1012.6,305.1,4.4,6.7,316.0,0.00,-0.7,7.6,"17:22:00",1
"21/12/26","17:40",0.0,0.6,90.4,1011.9,295.8,3.1,5.4,308.3,0.00,-0.7,7.7,"17:30:16",1
"21/12/26","17:50",0.0,0.7,90.9,1012.3,298.3,2.5,3.5,315.7,0.00,-0.6,7.5,"17:49:08",1
"21/12/26","18:00",0.0,0.5,91.5,1012.1,317.5,3.1,5.1,339.1,0.00,-0.7,7.5,"17:59:56",1
"21/12/26","18:10",0.0,0.4,92.1,1012.3,317.0,3.0,4.4,349.4,0.00,-0.7,7.4,"18:00:16",1
"21/12/26","18:20",0.0,0.3,92.6,1012.3,311.5,2.3,3.6,335.7,0.00,-0.7,7.5,"18:14:18",1
"21/12/26","18:30",0.0,0.3,92.9,1012.6,304.0,2.3,4.4,321.9,0.00,-0.7,7.4,"18:29:40",1
"21/12/26","18:40",0.0,0.3,93.1,1012.6,311.5,2.5,3.6,355.7,0.00,-0.6,7.4,"18:31:20",1
"21/12/26","18:50",0.0,0.4,93.1,1012.8,311.5,2.7,4.1,296.6,0.00,-0.5,7.4,"18:40:32",1
"21/12/26","19:00",0.0,0.3,93.3,1013.0,305.1,2.7,4.0,324.2,0.00,-0.6,7.4,"18:53:04",1
"21/12/26","19:10",0.0,0.5,93.3,1012.6,308.4,3.0,4.2,349.3,0.00,-0.4,7.3,"19:01:10",1
"21/12/26","19:20",0.0,0.4,93.4,1013.0,314.2,3.0,5.0,337.4,0.00,-0.5,7.3,"19:16:20",1
"21/12/26","19:30",0.0,0.3,93.6,1013.0,296.8,2.8,4.7,295.7,0.00,-0.6,7.4,"19:25:56",1
"21/12/26","19:40",0.0,0.2,93.8,1013.0,297.4,2.7,4.7,249.1,0.00,-0.6,7.3,"19:34:54",1
"21/12/26","19:50",0.0,0.2,93.9,1013.0,310.1,3.0,4.9,358.5,0.00,-0.6,7.2,"19:44:44",1
"21/12/26","20:00",0.0,0.1,94.2,1013.0,296.1,2.5,4.0,323.4,0.00,-0.7,7.4,"19:52:06",1
"21/12/26","20:10",0.0,0.1,94.4,1013.5,318.6,3.0,5.1,342.4,0.00,-0.7,7.4,"20:09:04",1
"21/12/26","20:20",0.0,0.1,94.6,1013.8,301.3,2.5,3.4,245.4,0.00,-0.6,7.2,"20:12:22",1
"21/12/26","20:30",0.0,0.0,94.9,1013.8,302.9,2.5,4.9,346.3,0.00,-0.7,7.2,"20:23:40",1
"21/12/26","20:40",0.0,-0.1,95.1,1013.3,307.6,2.2,3.9,333.6,0.00,-0.7,7.2,"20:30:26",1
"21/12/26","20:50",0.0,0.0,95.3,1013.5,294.4,2.5,4.5,254.4,0.00,-0.6,7.2,"20:43:44",1
"21/12/26","21:00",0.0,0.0,95.4,1013.3,294.1,2.6,5.1,281.7,0.00,-0.6,6.8,"20:58:34",1
"21/12/26","21:10",0.0,-0.2,95.6,1013.5,310.1,2.6,4.4,309.9,0.00,-0.8,7.1,"21:02:00",1
"21/12/26","21:20",0.0,-0.2,95.8,1014.0,314.7,2.6,4.2,330.3,0.00,-0.7,7.2,"21:12:48",1
"21/12/26","21:30",0.0,0.0,95.9,1014.0,298.9,2.3,3.9,347.4,0.00,-0.5,7.2,"21:28:08",1
"21/12/26","21:40",0.0,0.0,96.0,1014.0,301.6,2.1,3.5,288.4,0.00,-0.5,6.9,"21:37:54",1
"21/12/26","21:50",0.0,0.0,96.1,1013.5,283.7,2.5,4.3,243.0,0.00,-0.5,7.0,"21:42:32",1
"21/12/26","22:00",0.0,-0.2,96.3,1013.8,284.0,2.6,5.1,246.9,0.00,-0.7,7.1,"21:54:42",1
"21/12/26","22:10",0.0,-0.3,96.5,1013.8,295.2,2.6,4.8,342.0,0.00,-0.7,7.1,"22:03:44",1
"21/12/26","22:20",0.0,-0.2,96.6,1014.0,290.6,2.1,4.8,334.5,0.00,-0.6,7.0,"22:14:10",1
"21/12/26","22:30",0.0,-0.2,96.7,1014.0,291.1,2.1,3.7,300.7,0.00,-0.6,7.1,"22:26:08",1
"21/12/26","22:40",0.0,-0.1,96.8,1013.8,295.0,2.5,4.4,263.3,0.00,-0.5,7.2,"22:36:00",1
"21/12/26","22:50",0.0,-0.1,96.9,1014.2,292.6,2.2,4.2,335.8,0.00,-0.5,7.0,"22:40:48",1
"21/12/26","23:00",0.0,-0.2,97.0,1014.2,288.1,1.8,3.3,250.8,0.00,-0.6,7.1,"22:50:40",1
"21/12/26","23:10",0.0,-0.2,97.1,1014.0,293.3,1.6,2.2,278.4,0.00,-0.6,7.1,"23:09:28",1
"21/12/26","23:20",0.0,-0.2,97.2,1014.2,270.8,2.0,5.0,242.3,0.00,-0.5,7.1,"23:16:40",1
"21/12/26","23:30",0.0,-0.2,97.3,1014.2,279.1,2.1,3.9,242.5,0.00,-0.5,6.9,"23:21:12",1
"21/12/26","23:40",0.0,-0.3,97.4,1014.0,301.0,2.0,3.7,293.1,0.00,-0.6,6.9,"23:39:04",1
"21/12/26","23:50",0.0,-0.3,97.5,1014.2,302.4,2.1,3.3,300.1,0.00,-0.6,7.0,"23:40:08",1
"21/12/26","24:00",0.0,-0.3,97.6,1013.8,295.1,1.7,3.3,343.8,0.00,-0.6,6.8,"23:52:08",1
